DW2802 Ogijares ES current weather conditions

sailwx.info

Wind from 284

Air temperature 11.1° C
Dewpoint 5.2° C

Last reported at 2015-Feb-28 19:40 UTC.
Time now 2015-Feb-28 20:48 UTC

Location: N 37°07' W 003°36'.
View on Google Maps.

See reports from other nearby stations

  
Tides and Currents Weather Stations Pressure Air Temp Water Temp Dewpoint Dewpoint Depression Visibility Wind Speed Wind Dir Waves Ship Positions
date/time (UTC)wind fromknots sea level pressurealtimeterstation pressurevisibilityair tempwater tempwave heightnotes
2015-Feb-28 19:40 284 11.1
2015-Feb-28 19:25 262 11.7
2015-Feb-28 19:10 263 11.7
2015-Feb-28 18:55 263 12.2
2015-Feb-28 18:40 263 1 gusting 6 12.8
2015-Feb-28 18:25 201 0 gusting 4 12.8
2015-Feb-28 18:10 202 0 gusting 5 12.8
2015-Feb-28 17:55 221 4 gusting 10 13.3
2015-Feb-28 17:40 279 6 gusting 11 13.9
2015-Feb-28 17:25 270 7 gusting 14 14.4
2015-Feb-28 17:10 292 7 gusting 12 15.0
2015-Feb-28 16:55 278 7 gusting 12 15.6
2015-Feb-28 16:40 277 4 gusting 10 16.1
2015-Feb-28 16:25 286 5 gusting 9 16.1
2015-Feb-28 16:10 267 4 gusting 10 16.1
2015-Feb-28 15:55 279 4 gusting 13 16.1
2015-Feb-28 15:40 279 5 gusting 13 16.1
2015-Feb-28 15:25 302 6 gusting 13 16.1
2015-Feb-28 15:10 295 7 gusting 13 16.1
2015-Feb-28 14:55 295 6 gusting 11 16.1
2015-Feb-28 14:40 309 3 gusting 11 16.1
2015-Feb-28 14:25 296 6 gusting 9 16.1
2015-Feb-28 14:10 302 0 gusting 8 16.1
2015-Feb-28 13:55 299 1 gusting 12 15.6
2015-Feb-28 13:40 288 15.6
2015-Feb-28 13:25 009 3 gusting 9 15.6
2015-Feb-28 13:10 355 15.0
2015-Feb-28 12:55 063 14.4
2015-Feb-28 12:40 062 3 gusting 5 14.4
2015-Feb-28 12:25 015 4 gusting 7 13.3
2015-Feb-28 12:10 048 2 gusting 9 12.8
2015-Feb-28 11:55 327 2 gusting 6 12.2
2015-Feb-28 11:39 028 4 gusting 6 12.2
2015-Feb-28 11:24 013 3 gusting 9 11.1
2015-Feb-28 11:09 323 10.6
2015-Feb-28 10:54 050 0 gusting 5 10.6
2015-Feb-28 10:39 269 9.4
2015-Feb-28 10:24 230 8.9
2015-Feb-28 10:09 295 8.9
2015-Feb-28 09:54 295 7.8
2015-Feb-28 09:39 295 7.2
2015-Feb-28 09:24 296 7.2
2015-Feb-28 09:10 296 7.2
2015-Feb-28 08:54 296 7.2
2015-Feb-28 08:39 286 7.2
2015-Feb-28 08:24 293 3 gusting 8 7.2
2015-Feb-28 08:09 306 7.2
2015-Feb-28 07:54 306 7.2
2015-Feb-28 07:39 306 7.2
2015-Feb-28 07:24 299 7.2
2015-Feb-28 07:09 301 2 gusting 7 7.2
2015-Feb-28 06:54 302 7.2
2015-Feb-28 05:39 355 7.2
2015-Feb-28 05:24 355 7.2
2015-Feb-28 05:09 355 7.2
2015-Feb-28 04:54 355 7.2
2015-Feb-28 04:39 355 7.2
2015-Feb-28 04:24 355 7.2
2015-Feb-28 04:09 355 7.2
2015-Feb-28 03:54 355 7.2
2015-Feb-28 03:39 355 7.2
2015-Feb-28 03:23 355 7.8
2015-Feb-28 03:08 068 7.2
2015-Feb-28 02:53 068 7.2
2015-Feb-28 02:38 068 7.2
2015-Feb-28 02:23 068 7.2
2015-Feb-28 02:08 065 7.2
2015-Feb-28 01:54 065 7.8
2015-Feb-28 01:39 065 7.8
2015-Feb-28 01:24 065 7.2
2015-Feb-28 01:09 041 7.2
2015-Feb-28 00:54 041 7.2
2015-Feb-28 00:39 041 7.8
2015-Feb-28 00:24 041 7.8
2015-Feb-28 00:09 041 7.8
2015-Feb-27 23:54 041 7.8
2015-Feb-27 23:39 041 8.3
2015-Feb-27 23:24 041 8.3
2015-Feb-27 23:09 041 8.9
2015-Feb-27 22:54 041 8.9
2015-Feb-27 22:39 041 8.9
2015-Feb-27 22:24 041 9.4
2015-Feb-27 22:09 041 10.0
2015-Feb-27 21:54 056 1 gusting 5 10.0
2015-Feb-27 21:39 064 3 gusting 7 10.0
2015-Feb-27 21:24 049 2 gusting 5 10.0
2015-Feb-27 21:09 043 0 gusting 5 10.0
2015-Feb-27 20:54 035 1 gusting 7 10.0
2015-Feb-27 20:39 036 3 gusting 6 10.0
2015-Feb-27 20:24 032 1 gusting 7 10.0
2015-Feb-27 20:09 026 3 gusting 8 10.0
2015-Feb-27 19:54 037 2 gusting 7 10.0
2015-Feb-27 19:39 015 10.0
2015-Feb-27 19:23 019 3 gusting 5 10.0
2015-Feb-27 19:08 005 10.0
2015-Feb-27 18:53 360 10.6
2015-Feb-27 18:38 316 4 gusting 10 10.6
2015-Feb-27 18:23 349 1 gusting 11 11.1
2015-Feb-27 18:08 319 3 gusting 13 11.7
2015-Feb-27 17:53 334 7 gusting 13 12.2
2015-Feb-27 17:38 323 8 gusting 19 12.8
2015-Feb-27 17:23 326 6 gusting 16 12.8
2015-Feb-27 17:08 355 12 gusting 19 13.3
2015-Feb-27 16:53 327 10 gusting 19 13.9
2015-Feb-27 16:38 325 9 gusting 19 13.9
2015-Feb-27 16:23 331 13 gusting 18 14.4
2015-Feb-27 16:08 342 12 gusting 20 15.0
2015-Feb-27 15:53 343 9 gusting 13 15.6
2015-Feb-27 15:38 331 11 gusting 19 15.6
2015-Feb-27 15:23 337 11 gusting 15 15.6
2015-Feb-27 15:08 309 9 gusting 16 15.6
2015-Feb-27 14:53 317 9 gusting 19 15.6
2015-Feb-27 14:38 324 8 gusting 16 15.6
2015-Feb-27 14:23 355 8 gusting 14 15.6
2015-Feb-27 14:08 324 7 gusting 15 15.6
2015-Feb-27 13:53 327 9 gusting 18 15.6
2015-Feb-27 13:38 304 8 gusting 18 15.6
2015-Feb-27 13:23 279 7 gusting 15 15.0
2015-Feb-27 13:08 285 6 gusting 12 15.0
2015-Feb-27 12:53 329 8 gusting 14 15.0
2015-Feb-27 12:38 345 6 gusting 13 15.0
2015-Feb-27 12:23 032 8 gusting 16 14.4
2015-Feb-27 12:08 029 1 gusting 5 13.9
2015-Feb-27 11:53 055 13.3
2015-Feb-27 11:38 336 0 gusting 7 12.2
2015-Feb-27 11:23 304 5 gusting 7 11.7
2015-Feb-27 11:08 308 0 gusting 7 11.1
2015-Feb-27 10:52 323 3 gusting 7 11.1
2015-Feb-27 10:37 022 2 gusting 5 11.1
2015-Feb-27 10:22 329 10.0
2015-Feb-27 10:07 330 0 gusting 6 9.4
2015-Feb-27 09:52 351 8.9
2015-Feb-27 09:37 303 8.3
2015-Feb-27 09:22 299 7.8
2015-Feb-27 09:07 304 7.8
2015-Feb-27 08:52 304 0 gusting 6 7.8
2015-Feb-27 08:37 305 2 gusting 5 7.2
2015-Feb-27 08:22 338 7.2
2015-Feb-27 08:07 338 6.7
2015-Feb-27 07:52 338 6.7
2015-Feb-27 07:37 332 6.7
2015-Feb-27 07:22 332 6.7
2015-Feb-27 07:07 332 6.7
2015-Feb-27 06:52 332 6.7
2015-Feb-27 06:37 332 6.7
2015-Feb-27 06:22 332 6.1
2015-Feb-27 06:07 332 6.7
2015-Feb-27 05:52 332 6.7
2015-Feb-27 05:37 332 6.1
2015-Feb-27 05:22 332 6.1
2015-Feb-27 05:07 332 6.1
2015-Feb-27 04:52 332 6.1
2015-Feb-27 04:37 332 6.1
2015-Feb-27 04:22 332 6.7
2015-Feb-27 04:07 332 7.2
2015-Feb-27 03:52 332 7.2
2015-Feb-27 03:37 332 7.2
2015-Feb-27 03:22 332 7.2
2015-Feb-27 03:07 331 7.2
2015-Feb-27 02:52 331 7.8
2015-Feb-27 02:37 331 7.8
2015-Feb-27 02:22 331 7.8
2015-Feb-27 02:07 331 7.8
2015-Feb-27 01:52 331 7.8
2015-Feb-27 01:36 331 7.8
2015-Feb-27 01:21 331 8.3
2015-Feb-27 01:06 331 8.3
2015-Feb-27 00:51 331 9.4
2015-Feb-27 00:36 331 10.0
2015-Feb-27 00:21 331 10.0
2015-Feb-27 00:06 331 10.6
2015-Feb-26 23:51 331 10.6
2015-Feb-26 23:36 331 10.6
2015-Feb-26 23:21 331 10.6
2015-Feb-26 23:06 277 10.6
2015-Feb-26 22:51 277 11.1
2015-Feb-26 22:36 277 11.7
2015-Feb-26 22:21 277 11.7
2015-Feb-26 22:06 281 2 gusting 6 11.7
2015-Feb-26 21:51 278 4 gusting 7 11.7
2015-Feb-26 21:36 275 5 gusting 7 12.2
2015-Feb-26 21:21 290 0 gusting 4 12.8
2015-Feb-26 21:06 019 4 gusting 6 12.8
2015-Feb-26 20:35 057 2 gusting 8 12.8
2015-Feb-26 20:21 067 4 gusting 10 12.8
2015-Feb-26 20:06 065 4 gusting 7 12.8